Location: Croydon
(51.3762°N, 0.0982°W)
Time: 03:16:12
(UTC+00:00)

Altair - Pass Details

Date: 17 November 2019
Orbit: 1502 x 1682 km, 47.2° (Epoch: 14 December)

Event Time Altitude Azimuth Distance (km) Brightness Sun altitude
Rises 06:53:27 0° 269° (W) 4,637 - -4.6°
Exits shadow 06:53:36 - 269° (W) 4,591 9.4 -4.6°
Reaches altitude 10° 06:56:28 10° 267° (W) 3,661 9.0 -4.2°
Maximum altitude 07:05:34 68° 187° (S) 1,625 7.8 -2.9°
Drops below altitude 10° 07:14:55 10° 107° (ESE) 3,758 11.4 -1.6°
Sets 07:18:03 0° 105° (ESE) 4,766 12.1 -1.2°
